Location: Brompton
(51.4000°N, 0.5333°E)
Time: 03:44:06
(UTC+00:00)

ALOS 2 - Pass Details

Date: 11 May 2021
Orbit: 630 x 632 km, 97.9° (Epoch: 13 June)

Event Time Altitude Azimuth Distance (km) Brightness Sun altitude
Exits shadow 22:40:53 30° 117° (ESE) 1,135 3.5 -18.6°
Maximum altitude 22:42:30 44° 68° (ENE) 887 3.3 -18.7°
Drops below altitude 10° 22:46:41 10° 357° (N) 2,027 6.4 -18.9°
Sets 22:48:58 0° 351° (N) 2,940 7.7 -19.0°
